EW8360 Weather Reports


time (UTC)temp
C
wind
direction
speed
KPH
gust
KPH
rain 1hr
cm
rain 24hr
cm
rain mn
cm
humidity
%
barometer
mb
20260502152328 16 331 4.8 11.3 0.00 0.00 0.00 87 1013.2
20260502151828 16 49 3.2 11.3 0.00 0.00 0.00 87 1013.2
20260502151327 16 347 4.8 11.3 0.00 0.00 0.00 87 1013.1
20260502150827 16 354 1.6 11.3 0.00 0.00 0.00 88 1013.1
20260502150328 16 343 8.0 12.9 0.00 0.00 0.00 88 1013.0
20260502130554 15 312 4.8 8.0 0.00 0.00 0.00 89 1012.3
20260502122823 15 267 3.2 4.8 0.00 0.00 0.00 88 1012.2
20260502122324 15 263 0.0 4.8 0.00 0.00 0.00 88 1012.2
20260502121824 15 266 0.0 1.6 0.00 0.00 0.00 88 1012.3
20260502121324 15 260 0.0 1.6 0.00 0.00 0.00 88 1012.1
20260502120824 15 252 0.0 4.8 0.00 0.00 0.00 88 1012.2
20260502120323 15 283 3.2 4.8 0.00 0.00 0.00 88 1012.1
20260502115824 15 263 0.0 4.8 0.00 0.00 0.00 88 1012.0
20260502115324 16 266 0.0 3.2 0.00 0.00 0.00 88 1012.0
20260502114824 16 249 1.6 3.2 0.00 0.00 0.00 88 1012.0
20260502114323 16 260 1.6 3.2 0.00 0.00 0.00 88 1011.9
20260502113824 16 270 0.0 4.8 0.00 0.00 0.00 88 1011.9
20260502113546 16 284 3.2 8.0 0.00 0.00 0.00 88 1011.9
20260502112822 16 271 3.2 8.0 0.00 0.00 0.00 88 1011.9
20260502112322 16 284 3.2 8.0 0.00 0.00 0.00 87 1011.8
20260502111824 16 299 6.4 8.0 0.00 0.00 0.00 87 1011.9
20260502111323 16 229 1.6 4.8 0.00 0.00 0.00 87 1011.9
20260502111043 16 225 3.2 3.2 0.00 0.00 0.00 87 1011.9
20260502110322 16 278 0.0 1.6 0.00 0.00 0.00 86 1011.9
20260502105823 16 247 0.0 3.2 0.00 0.00 0.00 86 1011.9
20260502105322 16 261 0.0 3.2 0.00 0.00 0.00 86 1011.8
20260502104821 16 250 0.0 4.8 0.00 0.00 0.00 86 1011.8
20260502104322 16 224 3.2 8.0 0.00 0.00 0.00 86 1011.9
20260502103822 16 236 4.8 8.0 0.00 0.00 0.00 85 1011.9
20260502103323 16 208 4.8 9.7 0.00 0.00 0.00 85 1011.8
20260502102821 16 229 3.2 9.7 0.00 0.00 0.00 86 1011.7
20260502102321 16 254 1.6 3.2 0.00 0.00 0.00 85 1011.8
20260502102042 16 254 0.0 8.0 0.00 0.00 0.00 85 1011.7
20260502101547 16 240 1.6 8.0 0.00 0.00 0.00 85 1011.9
20260502100820 16 251 6.4 8.0 0.00 0.00 0.00 85 1011.8
20260502091302 16 244 0.0 1.6 0.00 0.00 0.00 84 1011.8
20260502090541 16 251 0.0 3.2 0.00 0.00 0.00 84 1011.9
20260502071039 16 265 1.6 9.7 0.00 0.00 0.00 84 1012.6
20260502070539 16 318 4.8 9.7 0.00 0.00 0.00 84 1012.6
20260502070038 16 318 3.2 8.0 0.00 0.00 0.00 84 1012.5
20260502065758 16 272 3.2 8.0 0.00 0.00 0.00 84 1012.5
20260502065038 16 268 1.6 8.0 0.00 0.00 0.00 84 1012.5
20260502064538 16 295 1.6 9.7 0.00 0.00 0.00 84 1012.4
20260502064038 16 316 3.2 9.7 0.00 0.00 0.00 84 1012.4
20260502063537 16 326 6.4 8.0 0.00 0.00 0.00 84 1012.5
20260502063038 16 305 3.2 8.0 0.00 0.00 0.00 84 1012.5
20260502062538 16 2 1.6 9.7 0.00 0.00 0.00 84 1012.4
20260502062037 16 18 1.6 11.3 0.00 0.00 0.00 84 1012.4
20260502061537 16 344 8.0 11.3 0.00 0.00 0.00 84 1012.4
20260502061039 16 334 8.0 11.3 0.00 0.00 0.00 84 1012.4
20260502060537 16 341 8.0 11.3 0.00 0.00 0.00 84 1012.4
20260502060304 16 348 1.6 8.0 0.00 0.00 0.00 84 1012.5
20260502055536 16 3 4.8 8.0 0.00 0.00 0.00 84 1012.5
20260502055037 16 288 0.0 8.0 0.00 0.00 0.00 84 1012.6
20260502054538 16 264 0.0 8.0 0.00 0.00 0.00 84 1012.5
20260502054036 16 319 3.2 8.0 0.00 0.00 0.00 84 1012.6
20260502053537 16 320 4.8 9.7 0.00 0.00 0.00 84 1012.6
20260502053035 16 313 3.2 9.7 0.00 0.00 0.00 84 1012.6
20260502052537 16 326 6.4 9.7 0.00 0.00 0.00 84 1012.5
20260502052037 16 350 6.4 9.7 0.00 0.00 0.00 84 1012.5
20260502051537 16 347 6.4 9.7 0.00 0.00 0.00 84 1012.4
20260502051035 16 325 6.4 8.0 0.00 0.00 0.00 84 1012.4
20260502050536 16 275 1.6 3.2 0.00 0.00 0.00 84 1012.5
20260502050036 16 320 0.0 4.8 0.00 0.00 0.00 84 1012.6
20260502045758 16 272 3.2 8.0 0.00 0.00 0.00 84 1012.6
20260502045035 16 276 4.8 8.0 0.00 0.00 0.00 84 1012.6
20260502044536 16 272 4.8 8.0 0.00 0.00 0.00 84 1012.5
20260502044036 16 317 3.2 9.7 0.00 0.00 0.00 84 1012.5
20260502043534 16 280 0.0 11.3 0.00 0.00 0.00 84 1012.5
20260502043035 16 352 8.0 11.3 0.00 0.00 0.00 84 1012.3
20260502042536 16 347 8.0 11.3 0.00 0.00 0.00 83 1012.4
20260502042036 16 345 8.0 11.3 0.00 0.00 0.00 84 1012.2
20260502041535 16 342 8.0 9.7 0.00 0.00 0.00 83 1012.2
20260502041035 16 288 4.8 9.7 0.00 0.00 0.00 83 1012.3
20260502040755 16 298 6.4 8.0 0.00 0.00 0.00 83 1012.3
20260502040035 16 269 0.0 3.2 0.00 0.00 0.00 84 1012.2
20260502035535 16 249 0.0 3.2 0.00 0.00 0.00 85 1012.3
20260502035033 16 252 1.6 3.2 0.00 0.00 0.00 85 1012.2
20260502034535 16 269 1.6 4.8 0.00 0.00 0.00 85 1012.1
20260502034036 16 255 1.6 4.8 0.00 0.00 0.00 85 1012.1
20260502033536 16 248 1.6 3.2 0.00 0.00 0.00 85 1012.1
20260502033034 16 254 0.0 3.2 0.00 0.00 0.00 85 1012.0
20260502032536 16 261 1.6 8.0 0.00 0.00 0.00 85 1011.9
20260502032255 16 257 0.0 8.0 0.00 0.00 0.00 85 1011.9
20260502031533 16 264 1.6 4.8 0.00 0.00 0.00 86 1011.9
20260502031033 16 263 1.6 4.8 0.00 0.00 0.00 86 1011.8
20260502030758 16 259 0.0 3.2 0.00 0.00 0.00 86 1011.7
20260502030033 16 260 1.6 9.7 0.00 0.00 0.00 85 1011.7
20260502025532 16 260 1.6 9.7 0.00 0.00 0.00 85 1011.7
20260502025033 16 264 1.6 4.8 0.00 0.00 0.00 85 1011.6
20260502024533 16 292 4.8 8.0 0.00 0.00 0.00 85 1011.6
20260502024034 16 257 4.8 8.0 0.00 0.00 0.00 85 1011.5
20260502023753 16 337 3.2 9.7 0.00 0.00 0.00 85 1011.5
20260502023031 16 294 1.6 9.7 0.00 0.00 0.00 85 1011.5
20260502022531 16 264 4.8 8.0 0.00 0.00 0.00 84 1011.5
20260502022033 16 256 3.2 9.7 0.00 0.00 0.00 84 1011.5
20260502021532 16 256 6.4 12.9 0.00 0.00 0.00 83 1011.4
20260502021033 16 260 4.8 12.9 0.00 0.00 0.00 82 1011.3
20260502020531 17 330 8.0 12.9 0.00 0.00 0.00 81 1011.3
20260502020034 17 335 6.4 12.9 0.00 0.00 0.00 81 1011.3
20260502015756 17 266 1.6 16.1 0.00 0.00 0.00 80 1011.3
20260502015030 17 296 6.4 16.1 0.00 0.00 0.00 81 1011.2
20260502014530 17 299 12.9 16.1 0.00 0.00 0.00 80 1011.3
20260502014032 17 267 4.8 12.9 0.00 0.00 0.00 80 1011.3
20260502013533 17 257 3.2 12.9 0.00 0.00 0.00 80 1011.2
20260502013030 17 272 3.2 14.5 0.00 0.00 0.00 79 1011.1
20260502012532 17 303 8.0 14.5 0.00 0.00 0.00 78 1011.0
20260502012032 17 291 4.8 12.9 0.00 0.00 0.00 78 1011.0
20260502011756 17 310 3.2 11.3 0.00 0.00 0.00 76 1011.1
20260502011255 17 339 8.0 11.3 0.00 0.00 0.00 77 1011.0
20260502010530 18 358 6.4 12.9 0.00 0.00 0.00 76 1010.9
20260502010031 18 262 4.8 12.9 0.00 0.00 0.00 77 1010.9
20260502005756 18 265 6.4 19.3 0.00 0.00 0.00 76 1010.8
20260502005030 18 280 11.3 19.3 0.00 0.00 0.00 78 1010.9
20260502004530 18 302 1.6 16.1 0.00 0.00 0.00 77 1010.9
20260502004031 18 298 3.2 19.3 0.00 0.00 0.00 76 1010.9
20260502003530 18 305 8.0 19.3 0.00 0.00 0.00 74 1010.9
20260502003249 18 291 4.8 12.9 0.00 0.00 0.00 75 1010.9
20260502002529 18 268 3.2 12.9 0.00 0.00 0.00 75 1010.8
20260502002029 18 331 4.8 19.3 0.00 0.00 0.00 74 1010.7
20260502001530 18 264 6.4 19.3 0.00 0.00 0.00 74 1010.7
20260502001028 19 296 6.4 12.9 0.00 0.00 0.00 75 1010.7
20260502000529 19 298 6.4 14.5 0.00 0.00 0.00 73 1010.7
20260502000028 19 281 3.2 14.5 0.00 0.00 0.00 74 1010.7
20260501235530 19 13 8.0 11.3 0.00 0.00 0.00 73 1010.7
20260501235029 19 262 6.4 12.9 0.00 0.00 0.00 72 1010.6
20260501234528 19 325 6.4 14.5 0.00 0.00 0.00 71 1010.7
20260501234027 19 258 9.7 14.5 0.00 0.00 0.00 71 1010.6
20260501233530 19 274 1.6 12.9 0.00 0.00 0.00 72 1010.6
20260501233029 19 280 6.4 12.9 0.00 0.00 0.00 72 1010.6
20260501232027 19 266 3.2 12.9 0.00 0.00 0.00 72 1010.6
20260501231756 19 306 8.0 16.1 0.00 0.00 0.00 73 1010.7
20260501231029 19 278 1.6 16.1 0.00 0.00 0.00 73 1010.6
20260501230528 19 332 8.0 20.9 0.00 0.00 0.00 72 1010.8
20260501230027 19 331 3.2 20.9 0.00 0.00 0.00 74 1010.8
20260501225528 19 287 9.7 16.1 0.00 0.00 0.00 73 1010.8
20260501225254 19 327 9.7 14.5 0.00 0.00 0.00 72 1010.9
20260501224527 19 329 8.0 19.3 0.00 0.00 0.00 72 1011.0
20260501224026 19 249 3.2 19.3 0.00 0.00 0.00 75 1011.0
20260501223528 19 329 14.5 20.9 0.00 0.00 0.00 73 1011.0
20260501223027 19 324 14.5 20.9 0.00 0.00 0.00 73 1011.1
20260501222526 19 346 11.3 16.1 0.00 0.00 0.00 72 1011.3
20260501222026 20 293 6.4 14.5 0.00 0.00 0.00 71 1011.4
20260501221528 20 281 6.4 14.5 0.00 0.00 0.00 70 1011.4
20260501221029 20 294 6.4 16.1 0.00 0.00 0.00 71 1011.4
20260501220526 20 345 4.8 16.1 0.00 0.00 0.00 71 1011.3
20260501220250 20 329 8.0 19.3 0.00 0.00 0.00 70 1011.4
20260501215528 20 312 6.4 19.3 0.00 0.00 0.00 71 1011.4
20260501215027 19 314 4.8 19.3 0.00 0.00 0.00 70 1011.5
20260501214525 19 350 12.9 14.5 0.00 0.00 0.00 70 1011.5
20260501214026 19 316 4.8 14.5 0.00 0.00 0.00 69 1011.5
20260501213527 19 259 3.2 20.9 0.00 0.00 0.00 70 1011.6
20260501213256 19 351 9.7 20.9 0.00 0.00 0.00 70 1011.7
20260501212525 19 346 3.2 19.3 0.00 0.00 0.00 68 1011.7
20260501212025 20 271 14.5 20.9 0.00 0.00 0.00 70 1011.8
20260501211526 20 344 9.7 20.9 0.00 0.00 0.00 69 1011.8
20260501211251 19 273 3.2 19.3 0.00 0.00 0.00 68 1011.8
20260501210525 19 323 9.7 14.5 0.00 0.00 0.00 70 1011.9
20260501210024 19 342 8.0 14.5 0.00 0.00 0.00 69 1011.8
20260501205748 19 279 4.8 16.1 0.00 0.00 0.00 69 1011.9
20260501205025 19 7 8.0 20.9 0.00 0.00 0.00 69 1012.0
20260501204524 19 269 8.0 24.1 0.00 0.00 0.00 69 1012.0
20260501204024 19 335 9.7 27.4 0.00 0.00 0.00 71 1011.9
20260501203742 20 5 14.5 27.4 0.00 0.00 0.00 70 1011.9
20260501203025 20 276 9.7 16.1 0.00 0.00 0.00 67 1011.9
20260501202749 20 347 4.8 22.5 0.00 0.00 0.00 69 1011.9
20260501202024 20 316 9.7 22.5 0.00 0.00 0.00 69 1011.8
20260501201524 20 332 4.8 14.5 0.00 0.00 0.00 68 1011.7
20260501201025 20 294 4.8 20.9 0.00 0.00 0.00 67 1011.9
20260501200525 20 26 8.0 20.9 0.00 0.00 0.00 69 1012.0
20260501200023 20 259 6.4 16.1 0.00 0.00 0.00 67 1011.9
20260501195524 20 270 6.4 14.5 0.00 0.00 0.00 68 1011.9
20260501195024 20 266 3.2 14.5 0.00 0.00 0.00 67 1012.0
20260501194525 20 315 6.4 19.3 0.00 0.00 0.00 68 1012.1
20260501194022 20 334 11.3 19.3 0.00 0.00 0.00 68 1012.1
20260501193523 20 287 4.8 14.5 0.00 0.00 0.00 67 1012.2
20260501193024 20 285 6.4 14.5 0.00 0.00 0.00 68 1012.1
20260501192524 20 319 6.4 14.5 0.00 0.00 0.00 67 1012.2
20260501192023 20 267 8.0 14.5 0.00 0.00 0.00 69 1012.2
20260501191523 20 263 3.2 14.5 0.00 0.00 0.00 67 1012.3
20260501191023 20 346 8.0 14.5 0.00 0.00 0.00 65 1012.4
20260501190523 20 308 4.8 14.5 0.00 0.00 0.00 64 1012.4
20260501190022 20 309 3.2 14.5 0.00 0.00 0.00 65 1012.5
20260501185748 20 261 6.4 14.5 0.00 0.00 0.00 67 1012.5
20260501185023 20 353 9.7 14.5 0.00 0.00 0.00 66 1012.6
20260501184523 20 342 12.9 14.5 0.00 0.00 0.00 66 1012.7
20260501184021 20 314 0.0 8.0 0.00 0.00 0.00 63 1012.7
20260501183522 20 250 0.0 8.0 0.00 0.00 0.00 63 1012.7
20260501183242 20 251 1.6 8.0 0.00 0.00 0.00 63 1012.8
20260501182524 20 217 4.8 9.7 0.00 0.00 0.00 64 1012.9
20260501182021 20 261 1.6 11.3 0.00 0.00 0.00 67 1013.1
20260501181743 19 258 3.2 11.3 0.00 0.00 0.00 66 1013.0
20260501181022 19 352 3.2 9.7 0.00 0.00 0.00 67 1013.1
20260501180522 19 260 1.6 11.3 0.00 0.00 0.00 66 1013.0
20260501180250 18 322 6.4 14.5 0.00 0.00 0.00 68 1013.1
20260501175521 18 262 6.4 14.5 0.00 0.00 0.00 68 1013.1
20260501175022 18 347 6.4 11.3 0.00 0.00 0.00 69 1013.2
20260501174522 18 279 3.2 11.3 0.00 0.00 0.00 70 1013.2
20260501174242 18 235 3.2 11.3 0.00 0.00 0.00 71 1013.3
20260501173520 17 355 4.8 11.3 0.00 0.00 0.00 68 1013.1
20260501173020 17 219 1.6 9.7 0.00 0.00 0.00 70 1013.2
20260501172522 17 277 3.2 11.3 0.00 0.00 0.00 69 1013.3
20260501172021 17 314 3.2 11.3 0.00 0.00 0.00 73 1013.3
20260501171741 17 287 4.8 11.3 0.00 0.00 0.00 71 1013.4
20260501171019 16 341 6.4 14.5 0.00 0.00 0.00 73 1013.3
20260501170521 16 269 1.6 14.5 0.00 0.00 0.00 74 1013.4
20260501170241 16 358 3.2 12.9 0.00 0.00 0.00 74 1013.5
20260501165521 16 316 1.6 9.7 0.00 0.00 0.00 76 1013.4
20260501165020 16 299 1.6 9.7 0.00 0.00 0.00 75 1013.5
20260501164521 16 301 6.4 11.3 0.00 0.00 0.00 76 1013.5
20260501164020 16 350 4.8 12.9 0.00 0.00 0.00 77 1013.6
20260501163519 16 351 9.7 12.9 0.00 0.00 0.00 76 1013.5
20260501163018 16 345 9.7 11.3 0.00 0.00 0.00 76 1013.4
20260501162521 16 319 1.6 12.9 0.00 0.00 0.00 78 1013.5
20260501162020 16 349 8.0 12.9 0.00 0.00 0.00 77 1013.5
20260501161519 16 28 8.0 9.7 0.00 0.00 0.00 77 1013.5
20260501161019 16 335 6.4 9.7 0.00 0.00 0.00 77 1013.5
20260501160522 16 292 3.2 4.8 0.00 0.00 0.00 77 1013.5
20260501160019 16 168 3.2 4.8 0.00 0.00 0.00 77 1013.4